Year,Month,Day,Hour,Minute,Value (Times are PST for temperature in C)
2010,06,15,00,00,10.00
2010,06,15,00,01,10.00
2010,06,15,00,02,10.00
2010,06,15,00,03,10.00
2010,06,15,00,04,10.00
2010,06,15,00,05,10.00
2010,06,15,00,06,10.00
2010,06,15,00,07,10.00
2010,06,15,00,08,10.00
2010,06,15,00,09,10.00
2010,06,15,00,10,10.00
2010,06,15,00,11,10.00
2010,06,15,00,12,10.00
2010,06,15,00,13,10.00
2010,06,15,00,14,10.00
2010,06,15,00,15,10.00
2010,06,15,00,16,10.00
2010,06,15,00,17,10.00
2010,06,15,00,18,10.00
2010,06,15,00,19,10.00
2010,06,15,00,20,10.00
2010,06,15,00,21,10.00
2010,06,15,00,22,10.00
2010,06,15,00,23,10.00
2010,06,15,00,24,10.00
2010,06,15,00,25,10.00
2010,06,15,00,26,10.00
2010,06,15,00,27,10.00
2010,06,15,00,28,10.00
2010,06,15,00,29,10.00
2010,06,15,00,30,9.90
2010,06,15,00,31,9.90
2010,06,15,00,32,9.90
2010,06,15,00,33,9.90
2010,06,15,00,34,9.90
2010,06,15,00,35,9.90
2010,06,15,00,36,9.90
2010,06,15,00,37,9.90
2010,06,15,00,38,9.90
2010,06,15,00,39,9.90
2010,06,15,00,40,9.90
2010,06,15,00,41,9.90
2010,06,15,00,42,9.90
2010,06,15,00,43,9.90
2010,06,15,00,44,9.90
2010,06,15,00,45,9.90
2010,06,15,00,46,9.90
2010,06,15,00,47,9.90
2010,06,15,00,48,9.90
2010,06,15,00,49,9.90
2010,06,15,00,50,9.90
2010,06,15,00,51,9.80
2010,06,15,00,52,9.80
2010,06,15,00,53,9.80
2010,06,15,00,54,9.80
2010,06,15,00,55,9.80
2010,06,15,00,56,9.80
2010,06,15,00,57,9.80
2010,06,15,00,58,9.80
2010,06,15,00,59,9.80
2010,06,15,01,00,9.80
2010,06,15,01,01,9.80
2010,06,15,01,02,9.80
2010,06,15,01,03,9.80
2010,06,15,01,04,9.80
2010,06,15,01,05,9.80
2010,06,15,01,06,9.80
2010,06,15,01,07,9.80
2010,06,15,01,08,9.80
2010,06,15,01,09,9.80
2010,06,15,01,10,9.80
2010,06,15,01,11,9.80
2010,06,15,01,12,9.80
2010,06,15,01,13,9.80
2010,06,15,01,14,9.80
2010,06,15,01,15,9.80
2010,06,15,01,16,9.80
2010,06,15,01,17,9.80
2010,06,15,01,18,9.80
2010,06,15,01,19,9.90
2010,06,15,01,20,9.90
2010,06,15,01,21,9.90
2010,06,15,01,22,9.90
2010,06,15,01,23,9.90
2010,06,15,01,24,9.90
2010,06,15,01,25,9.80
2010,06,15,01,26,9.80
2010,06,15,01,27,9.80
2010,06,15,01,28,9.80
2010,06,15,01,29,9.80
2010,06,15,01,30,9.80
2010,06,15,01,31,9.80
2010,06,15,01,32,9.80
2010,06,15,01,33,9.80
2010,06,15,01,34,9.80
2010,06,15,01,35,9.80
2010,06,15,01,36,9.80
2010,06,15,01,37,9.80
2010,06,15,01,38,9.80
2010,06,15,01,39,9.80
2010,06,15,01,40,9.70
2010,06,15,01,41,9.70
2010,06,15,01,42,9.70
2010,06,15,01,43,9.70
2010,06,15,01,44,9.70
2010,06,15,01,45,9.70
2010,06,15,01,46,9.70
2010,06,15,01,47,9.70
2010,06,15,01,48,9.70
2010,06,15,01,49,9.70
2010,06,15,01,50,9.70
2010,06,15,01,51,9.70
2010,06,15,01,52,9.70
2010,06,15,01,53,9.70
2010,06,15,01,54,9.70
2010,06,15,01,55,9.70
2010,06,15,01,56,9.70
2010,06,15,01,57,9.70
2010,06,15,01,58,9.70
2010,06,15,01,59,9.80
2010,06,15,02,00,9.80
2010,06,15,02,01,9.80
2010,06,15,02,02,9.80
2010,06,15,02,03,9.80
2010,06,15,02,04,9.70
2010,06,15,02,05,9.70
2010,06,15,02,06,9.70
2010,06,15,02,07,9.70
2010,06,15,02,08,9.80
2010,06,15,02,09,9.70
2010,06,15,02,10,9.70
2010,06,15,02,11,9.70
2010,06,15,02,12,9.70
2010,06,15,02,13,9.70
2010,06,15,02,14,9.80
2010,06,15,02,15,9.80
2010,06,15,02,16,9.80
2010,06,15,02,17,9.80
2010,06,15,02,18,9.80
2010,06,15,02,19,9.80
2010,06,15,02,20,9.80
2010,06,15,02,21,9.80
2010,06,15,02,22,9.80
2010,06,15,02,23,9.80
2010,06,15,02,24,9.80
2010,06,15,02,25,9.80
2010,06,15,02,26,9.80
2010,06,15,02,27,9.80
2010,06,15,02,28,9.80
2010,06,15,02,29,9.90
2010,06,15,02,30,9.90
2010,06,15,02,31,9.90
2010,06,15,02,32,9.90
2010,06,15,02,33,9.90
2010,06,15,02,34,9.90
2010,06,15,02,35,9.90
2010,06,15,02,36,9.90
2010,06,15,02,37,9.90
2010,06,15,02,38,9.90
2010,06,15,02,39,9.90
2010,06,15,02,40,9.90
2010,06,15,02,41,9.90
2010,06,15,02,42,9.90
2010,06,15,02,43,9.90
2010,06,15,02,44,9.90
2010,06,15,02,45,9.90
2010,06,15,02,46,9.90
2010,06,15,02,47,9.90
2010,06,15,02,48,9.90
2010,06,15,02,49,9.90
2010,06,15,02,50,9.90
2010,06,15,02,51,9.90
2010,06,15,02,52,9.90
2010,06,15,02,53,9.90
2010,06,15,02,54,9.90
2010,06,15,02,55,9.90
2010,06,15,02,56,9.90
2010,06,15,02,57,9.90
2010,06,15,02,58,9.90
2010,06,15,02,59,9.90
2010,06,15,03,00,9.90
2010,06,15,03,01,9.90
2010,06,15,03,02,9.90
2010,06,15,03,03,9.90
2010,06,15,03,04,9.90
2010,06,15,03,05,9.90
2010,06,15,03,06,9.90
2010,06,15,03,07,9.90
2010,06,15,03,08,9.90
2010,06,15,03,09,9.90
2010,06,15,03,10,9.90
2010,06,15,03,11,9.90
2010,06,15,03,12,9.80
2010,06,15,03,13,9.80
2010,06,15,03,14,9.80
2010,06,15,03,15,9.80
2010,06,15,03,16,9.80
2010,06,15,03,17,9.80
2010,06,15,03,18,9.80
2010,06,15,03,19,9.80
2010,06,15,03,20,9.80
2010,06,15,03,21,9.80
2010,06,15,03,22,9.80
2010,06,15,03,23,9.80
2010,06,15,03,24,9.80
2010,06,15,03,25,9.80
2010,06,15,03,26,9.80
2010,06,15,03,27,9.80
2010,06,15,03,28,9.80
2010,06,15,03,29,9.80
2010,06,15,03,30,9.80
2010,06,15,03,31,9.80
2010,06,15,03,32,9.80
2010,06,15,03,33,9.80
2010,06,15,03,34,9.80
2010,06,15,03,35,9.80
2010,06,15,03,36,9.80
2010,06,15,03,37,9.70
2010,06,15,03,38,9.70
2010,06,15,03,39,9.70
2010,06,15,03,40,9.70
2010,06,15,03,41,9.70
2010,06,15,03,42,9.70
2010,06,15,03,43,9.70
2010,06,15,03,44,9.70
2010,06,15,03,45,9.70
2010,06,15,03,46,9.70
2010,06,15,03,47,9.60
2010,06,15,03,48,9.60
2010,06,15,03,49,9.60
2010,06,15,03,50,9.60
2010,06,15,03,51,9.60
2010,06,15,03,52,9.60
2010,06,15,03,53,9.60
2010,06,15,03,54,9.50
2010,06,15,03,55,9.50
2010,06,15,03,56,9.50
2010,06,15,03,57,9.50
2010,06,15,03,58,9.40
2010,06,15,03,59,9.40
2010,06,15,04,00,9.40
2010,06,15,04,01,9.40
2010,06,15,04,02,9.40
2010,06,15,04,03,9.40
2010,06,15,04,04,9.40
2010,06,15,04,05,9.30
2010,06,15,04,06,9.30
2010,06,15,04,07,9.30
2010,06,15,04,08,9.30
2010,06,15,04,09,9.30
2010,06,15,04,10,9.30
2010,06,15,04,11,9.30
2010,06,15,04,12,9.20
2010,06,15,04,13,9.20
2010,06,15,04,14,9.20
2010,06,15,04,15,9.20
2010,06,15,04,16,9.20
2010,06,15,04,17,9.10
2010,06,15,04,18,9.10
2010,06,15,04,19,9.10
2010,06,15,04,20,9.10
2010,06,15,04,21,9.10
2010,06,15,04,22,9.00
2010,06,15,04,23,9.00
2010,06,15,04,24,9.00
2010,06,15,04,25,8.90
2010,06,15,04,26,8.90
2010,06,15,04,27,8.90
2010,06,15,04,28,8.80
2010,06,15,04,29,8.80
2010,06,15,04,30,8.80
2010,06,15,04,31,8.70
2010,06,15,04,32,8.70
2010,06,15,04,33,8.70
2010,06,15,04,34,8.70
2010,06,15,04,35,8.60
2010,06,15,04,36,8.60
2010,06,15,04,37,8.60
2010,06,15,04,38,8.50
2010,06,15,04,39,8.50
2010,06,15,04,40,8.50
2010,06,15,04,41,8.40
2010,06,15,04,42,8.40
2010,06,15,04,43,8.40
2010,06,15,04,44,8.40
2010,06,15,04,45,8.30
2010,06,15,04,46,8.30
2010,06,15,04,47,8.30
2010,06,15,04,48,8.30
2010,06,15,04,49,8.30
2010,06,15,04,50,8.30
2010,06,15,04,51,8.20
2010,06,15,04,52,8.20
2010,06,15,04,53,8.20
2010,06,15,04,54,8.20
2010,06,15,04,55,8.20
2010,06,15,04,56,8.20
2010,06,15,04,57,8.20
2010,06,15,04,58,8.10
2010,06,15,04,59,8.10
2010,06,15,05,00,8.10
2010,06,15,05,01,8.10
2010,06,15,05,02,8.10
2010,06,15,05,03,8.00
2010,06,15,05,04,8.00
2010,06,15,05,05,8.00
2010,06,15,05,06,8.00
2010,06,15,05,07,8.00
2010,06,15,05,08,7.90
2010,06,15,05,09,7.90
2010,06,15,05,10,7.90
2010,06,15,05,11,7.90
2010,06,15,05,12,7.90
2010,06,15,05,13,7.90
2010,06,15,05,14,7.80
2010,06,15,05,15,7.80
2010,06,15,05,16,7.80
2010,06,15,05,17,7.80
2010,06,15,05,18,7.80
2010,06,15,05,19,7.80
2010,06,15,05,20,7.80
2010,06,15,05,21,7.80
2010,06,15,05,22,7.70
2010,06,15,05,23,7.70
2010,06,15,05,24,7.70
2010,06,15,05,25,7.70
2010,06,15,05,26,7.70
2010,06,15,05,27,7.70
2010,06,15,05,28,7.70
2010,06,15,05,29,7.70
2010,06,15,05,30,7.70
2010,06,15,05,31,7.60
2010,06,15,05,32,7.60
2010,06,15,05,33,7.60
2010,06,15,05,34,7.60
2010,06,15,05,35,7.60
2010,06,15,05,36,7.60
2010,06,15,05,37,7.60
2010,06,15,05,38,7.60
2010,06,15,05,39,7.60
2010,06,15,05,40,7.60
2010,06,15,05,41,7.60
2010,06,15,05,42,7.60
2010,06,15,05,43,7.60
2010,06,15,05,44,7.60
2010,06,15,05,45,7.60
2010,06,15,05,46,7.60
2010,06,15,05,47,7.60
2010,06,15,05,48,7.60
2010,06,15,05,49,7.60
2010,06,15,05,50,7.60
2010,06,15,05,51,7.60
2010,06,15,05,52,7.60
2010,06,15,05,53,7.60
2010,06,15,05,54,7.60
2010,06,15,05,55,7.60
2010,06,15,05,56,7.60
2010,06,15,05,57,7.60
2010,06,15,05,58,7.60
2010,06,15,05,59,7.60
2010,06,15,06,00,7.60
2010,06,15,06,01,7.50
2010,06,15,06,02,7.50
2010,06,15,06,03,7.50
2010,06,15,06,04,7.50
2010,06,15,06,05,7.50
2010,06,15,06,06,7.50
2010,06,15,06,07,7.60
2010,06,15,06,08,7.60
2010,06,15,06,09,7.60
2010,06,15,06,10,7.60
2010,06,15,06,11,7.60
2010,06,15,06,12,7.60
2010,06,15,06,13,7.60
2010,06,15,06,14,7.60
2010,06,15,06,15,7.60
2010,06,15,06,16,7.60
2010,06,15,06,17,7.60
2010,06,15,06,18,7.60
2010,06,15,06,19,7.60
2010,06,15,06,20,7.60
2010,06,15,06,21,7.60
2010,06,15,06,22,7.70
2010,06,15,06,23,7.70
2010,06,15,06,24,7.70
2010,06,15,06,25,7.70
2010,06,15,06,26,7.70
2010,06,15,06,27,7.70
2010,06,15,06,28,7.70
2010,06,15,06,29,7.70
2010,06,15,06,30,7.70
2010,06,15,06,31,7.70
2010,06,15,06,32,7.70
2010,06,15,06,33,7.70
2010,06,15,06,34,7.70
2010,06,15,06,35,7.70
2010,06,15,06,36,7.70
2010,06,15,06,37,7.80
2010,06,15,06,38,7.80
2010,06,15,06,39,7.80
2010,06,15,06,40,7.80
2010,06,15,06,41,7.80
2010,06,15,06,42,7.80
2010,06,15,06,43,7.90
2010,06,15,06,44,7.90
2010,06,15,06,45,7.90
2010,06,15,06,46,7.90
2010,06,15,06,47,8.00
2010,06,15,06,48,8.00
2010,06,15,06,49,8.00
2010,06,15,06,50,8.00
2010,06,15,06,51,8.10
2010,06,15,06,52,8.10
2010,06,15,06,53,8.10
2010,06,15,06,54,8.10
2010,06,15,06,55,8.20
2010,06,15,06,56,8.20
2010,06,15,06,57,8.20
2010,06,15,06,58,8.30
2010,06,15,06,59,8.30
2010,06,15,07,00,8.30
2010,06,15,07,01,8.40
2010,06,15,07,02,8.40
2010,06,15,07,03,8.40
2010,06,15,07,04,8.50
2010,06,15,07,05,8.50
2010,06,15,07,06,8.60
2010,06,15,07,07,8.60
2010,06,15,07,08,8.60
2010,06,15,07,09,8.60
2010,06,15,07,10,8.70
2010,06,15,07,11,8.70
2010,06,15,07,12,8.70
2010,06,15,07,13,8.80
2010,06,15,07,14,8.80
2010,06,15,07,15,8.80
2010,06,15,07,16,8.80
2010,06,15,07,17,8.80
2010,06,15,07,18,8.90
2010,06,15,07,19,8.90
2010,06,15,07,20,8.90
2010,06,15,07,21,9.00
2010,06,15,07,22,9.00
2010,06,15,07,23,9.00
2010,06,15,07,24,9.10
2010,06,15,07,25,9.10
2010,06,15,07,26,9.10
2010,06,15,07,27,9.10
2010,06,15,07,28,9.20
2010,06,15,07,29,9.20
2010,06,15,07,30,9.20
2010,06,15,07,31,9.20
2010,06,15,07,32,9.30
2010,06,15,07,33,9.30
2010,06,15,07,34,9.30
2010,06,15,07,35,9.30
2010,06,15,07,36,9.40
2010,06,15,07,37,9.40
2010,06,15,07,38,9.50
2010,06,15,07,39,9.50
2010,06,15,07,40,9.60
2010,06,15,07,41,9.60
2010,06,15,07,42,9.70
2010,06,15,07,43,9.70
2010,06,15,07,44,9.80
2010,06,15,07,45,9.80
2010,06,15,07,46,9.90
2010,06,15,07,47,9.90
2010,06,15,07,48,10.00
2010,06,15,07,49,10.00
2010,06,15,07,50,10.10
2010,06,15,07,51,10.10
2010,06,15,07,52,10.20
2010,06,15,07,53,10.20
2010,06,15,07,54,10.20
2010,06,15,07,55,10.30
2010,06,15,07,56,10.30
2010,06,15,07,57,10.30
2010,06,15,07,58,10.40
2010,06,15,07,59,10.40
2010,06,15,08,00,10.40
2010,06,15,08,01,10.40
2010,06,15,08,02,10.50
2010,06,15,08,03,10.50
2010,06,15,08,04,10.60
2010,06,15,08,05,10.60
2010,06,15,08,06,10.60
2010,06,15,08,07,10.60
2010,06,15,08,08,10.70
2010,06,15,08,09,10.70
2010,06,15,08,10,10.70
2010,06,15,08,11,10.80
2010,06,15,08,12,10.80
2010,06,15,08,13,10.80
2010,06,15,08,14,10.80
2010,06,15,08,15,10.90
2010,06,15,08,16,10.90
2010,06,15,08,17,10.90
2010,06,15,08,18,10.90
2010,06,15,08,19,11.00
2010,06,15,08,20,11.00
2010,06,15,08,21,11.10
2010,06,15,08,22,11.10
2010,06,15,08,23,11.20
2010,06,15,08,24,11.20
2010,06,15,08,25,11.30
2010,06,15,08,26,11.30
2010,06,15,08,27,11.40
2010,06,15,08,28,11.50
2010,06,15,08,29,11.50
2010,06,15,08,30,11.60
2010,06,15,08,31,11.60
2010,06,15,08,32,11.70
2010,06,15,08,33,11.80
2010,06,15,08,34,11.90
2010,06,15,08,35,12.00
2010,06,15,08,36,12.00
2010,06,15,08,37,12.10
2010,06,15,08,38,12.20
2010,06,15,08,39,12.20
2010,06,15,08,40,12.20
2010,06,15,08,41,12.30
2010,06,15,08,42,12.30
2010,06,15,08,43,12.30
2010,06,15,08,44,12.30
2010,06,15,08,45,12.30
2010,06,15,08,46,12.30
2010,06,15,08,47,12.30
2010,06,15,08,48,12.30
2010,06,15,08,49,12.40
2010,06,15,08,50,12.40
2010,06,15,08,51,12.40
2010,06,15,08,52,12.40
2010,06,15,08,53,12.40
2010,06,15,08,54,12.40
2010,06,15,08,55,12.40
2010,06,15,08,56,12.40
2010,06,15,08,57,12.40
2010,06,15,08,58,12.40
2010,06,15,08,59,12.40
2010,06,15,09,00,12.40
2010,06,15,09,01,12.40
2010,06,15,09,02,12.50
2010,06,15,09,03,12.50
2010,06,15,09,04,12.60
2010,06,15,09,05,12.60
2010,06,15,09,06,12.50
2010,06,15,09,07,12.50
2010,06,15,09,08,12.50
2010,06,15,09,09,12.50
2010,06,15,09,10,12.50
2010,06,15,09,11,12.50
2010,06,15,09,12,12.50
2010,06,15,09,13,12.50
2010,06,15,09,14,12.50
2010,06,15,09,15,12.50
2010,06,15,09,16,12.50
2010,06,15,09,17,12.50
2010,06,15,09,18,12.60
2010,06,15,09,19,12.60
2010,06,15,09,20,12.60
2010,06,15,09,21,12.60
2010,06,15,09,22,12.60
2010,06,15,09,23,12.60
2010,06,15,09,24,12.60
2010,06,15,09,25,12.60
2010,06,15,09,26,12.60
2010,06,15,09,27,12.60
2010,06,15,09,28,12.60
2010,06,15,09,29,12.50
2010,06,15,09,30,12.50
2010,06,15,09,31,12.50
2010,06,15,09,32,12.50
2010,06,15,09,33,12.50
2010,06,15,09,34,12.50
2010,06,15,09,35,12.50
2010,06,15,09,36,12.50
2010,06,15,09,37,12.50
2010,06,15,09,38,12.50
2010,06,15,09,39,12.50
2010,06,15,09,40,12.50
2010,06,15,09,41,12.60
2010,06,15,09,42,12.60
2010,06,15,09,43,12.60
2010,06,15,09,44,12.60
2010,06,15,09,45,12.70
2010,06,15,09,46,12.80
2010,06,15,09,47,12.80
2010,06,15,09,48,12.90
2010,06,15,09,49,12.90
2010,06,15,09,50,13.00
2010,06,15,09,51,13.10
2010,06,15,09,52,13.10
2010,06,15,09,53,13.20
2010,06,15,09,54,13.20
2010,06,15,09,55,13.20
2010,06,15,09,56,13.30
2010,06,15,09,57,13.30
2010,06,15,09,58,13.40
2010,06,15,09,59,13.50
2010,06,15,10,00,13.60
2010,06,15,10,01,13.70
2010,06,15,10,02,13.70
2010,06,15,10,03,13.80
2010,06,15,10,04,13.80
2010,06,15,10,05,13.80
2010,06,15,10,06,13.90
2010,06,15,10,07,14.00
2010,06,15,10,08,14.00
2010,06,15,10,09,14.10
2010,06,15,10,10,14.10
2010,06,15,10,11,14.10
2010,06,15,10,12,14.10
2010,06,15,10,13,14.10
2010,06,15,10,14,14.10
2010,06,15,10,15,14.20
2010,06,15,10,16,14.20
2010,06,15,10,17,14.20
2010,06,15,10,18,14.30
2010,06,15,10,19,14.30
2010,06,15,10,20,14.40
2010,06,15,10,21,14.40
2010,06,15,10,22,14.40
2010,06,15,10,23,14.40
2010,06,15,10,24,14.40
2010,06,15,10,25,14.40
2010,06,15,10,26,14.40
2010,06,15,10,27,14.40
2010,06,15,10,28,14.40
2010,06,15,10,29,14.40
2010,06,15,10,30,14.40
2010,06,15,10,31,14.40
2010,06,15,10,32,14.50
2010,06,15,10,33,14.50
2010,06,15,10,34,14.50
2010,06,15,10,35,14.50
2010,06,15,10,36,14.50
2010,06,15,10,37,14.60
2010,06,15,10,38,14.60
2010,06,15,10,39,14.60
2010,06,15,10,40,14.50
2010,06,15,10,41,14.40
2010,06,15,10,42,14.40
2010,06,15,10,43,14.40
2010,06,15,10,44,14.40
2010,06,15,10,45,14.40
2010,06,15,10,46,14.40
2010,06,15,10,47,14.50
2010,06,15,10,48,14.50
2010,06,15,10,49,14.50
2010,06,15,10,50,14.50
2010,06,15,10,51,14.50
2010,06,15,10,52,14.50
2010,06,15,10,53,14.40
2010,06,15,10,54,14.40
2010,06,15,10,55,14.30
2010,06,15,10,56,14.30
2010,06,15,10,57,14.20
2010,06,15,10,58,14.10
2010,06,15,10,59,13.90
2010,06,15,11,00,13.80
2010,06,15,11,01,13.70
2010,06,15,11,02,13.60
2010,06,15,11,03,13.50
2010,06,15,11,04,13.40
2010,06,15,11,05,13.20
2010,06,15,11,06,13.00
2010,06,15,11,07,12.90
2010,06,15,11,08,12.80
2010,06,15,11,09,12.70
2010,06,15,11,10,12.70
2010,06,15,11,11,12.60
2010,06,15,11,12,12.60
2010,06,15,11,13,12.50
2010,06,15,11,14,12.40
2010,06,15,11,15,12.40
2010,06,15,11,16,12.40
2010,06,15,11,17,12.40
2010,06,15,11,18,12.40
2010,06,15,11,19,12.40
2010,06,15,11,20,12.40
2010,06,15,11,21,12.40
2010,06,15,11,22,12.40
2010,06,15,11,23,12.40
2010,06,15,11,24,12.40
2010,06,15,11,25,12.40
2010,06,15,11,26,12.40
2010,06,15,11,27,12.50
2010,06,15,11,28,12.60
2010,06,15,11,29,12.70
2010,06,15,11,30,12.80
2010,06,15,11,31,12.80
2010,06,15,11,32,12.90
2010,06,15,11,33,12.90
2010,06,15,11,34,12.80
2010,06,15,11,35,12.80
2010,06,15,11,36,12.80
2010,06,15,11,37,12.80
2010,06,15,11,38,12.70
2010,06,15,11,39,12.70
2010,06,15,11,40,12.70
2010,06,15,11,41,12.70
2010,06,15,11,42,12.70
2010,06,15,11,43,12.80
2010,06,15,11,44,12.80
2010,06,15,11,45,12.80
2010,06,15,11,46,12.90
2010,06,15,11,47,12.90
2010,06,15,11,48,12.90
2010,06,15,11,49,12.90
2010,06,15,11,50,12.80
2010,06,15,11,51,12.80
2010,06,15,11,52,12.90
2010,06,15,11,53,12.90
2010,06,15,11,54,13.00
2010,06,15,11,55,13.10
2010,06,15,11,56,13.10
2010,06,15,11,57,13.10
2010,06,15,11,58,13.10
2010,06,15,11,59,13.00
2010,06,15,12,00,13.00
2010,06,15,12,01,13.00
2010,06,15,12,02,13.10
2010,06,15,12,03,13.10
2010,06,15,12,04,13.10
2010,06,15,12,05,13.20
2010,06,15,12,07,13.30
2010,06,15,12,08,13.30
2010,06,15,12,09,13.20
2010,06,15,12,10,13.20
2010,06,15,12,11,13.10
2010,06,15,12,12,13.10
2010,06,15,12,13,13.10
2010,06,15,12,14,13.10
2010,06,15,12,15,13.10
2010,06,15,12,16,13.10
2010,06,15,12,17,13.00
2010,06,15,12,19,13.00
2010,06,15,12,20,13.00
2010,06,15,12,21,13.00
2010,06,15,12,22,13.00
2010,06,15,12,23,13.00
2010,06,15,12,24,13.00
2010,06,15,12,25,13.00
2010,06,15,12,26,13.00
2010,06,15,12,27,13.00
2010,06,15,12,28,13.00
2010,06,15,12,29,13.10
2010,06,15,12,30,13.00
2010,06,15,12,31,13.00
2010,06,15,12,32,12.90
2010,06,15,12,33,12.90
2010,06,15,12,34,12.90
2010,06,15,12,35,12.80
2010,06,15,12,36,12.80
2010,06,15,12,37,12.80
2010,06,15,12,38,12.90
2010,06,15,12,39,12.90
2010,06,15,12,40,12.90
2010,06,15,12,41,12.90
2010,06,15,12,42,12.90
2010,06,15,12,43,13.00
2010,06,15,12,44,13.00
2010,06,15,12,45,13.00
2010,06,15,12,46,13.00
2010,06,15,12,47,13.00
2010,06,15,12,48,13.00
2010,06,15,12,49,13.00
2010,06,15,12,50,13.00
2010,06,15,12,51,13.10
2010,06,15,12,52,13.10
2010,06,15,12,53,13.20
2010,06,15,12,54,13.20
2010,06,15,12,55,13.20
2010,06,15,12,56,13.30
2010,06,15,12,57,13.30
2010,06,15,12,58,13.40
2010,06,15,12,59,13.50
2010,06,15,13,00,13.50
2010,06,15,13,01,13.60
2010,06,15,13,02,13.50
2010,06,15,13,03,13.50
2010,06,15,13,04,13.50
2010,06,15,13,05,13.40
2010,06,15,13,06,13.40
2010,06,15,13,07,13.40
2010,06,15,13,08,13.40
2010,06,15,13,09,13.40
2010,06,15,13,10,13.40
2010,06,15,13,11,13.30
2010,06,15,13,12,13.30
2010,06,15,13,13,13.30
2010,06,15,13,14,13.30
2010,06,15,13,15,13.30
2010,06,15,13,16,13.30
2010,06,15,13,17,13.30
2010,06,15,13,18,13.20
2010,06,15,13,19,13.10
2010,06,15,13,20,13.00
2010,06,15,13,21,12.90
2010,06,15,13,22,12.90
2010,06,15,13,23,13.00
2010,06,15,13,24,13.10
2010,06,15,13,25,13.20
2010,06,15,13,26,13.20
2010,06,15,13,27,13.20
2010,06,15,13,29,13.10
2010,06,15,13,30,13.10
2010,06,15,13,31,13.00
2010,06,15,13,32,13.00
2010,06,15,13,33,13.10
2010,06,15,13,34,13.20
2010,06,15,13,35,13.20
2010,06,15,13,36,13.20
2010,06,15,13,37,13.10
2010,06,15,13,38,13.10
2010,06,15,13,39,13.10
2010,06,15,13,40,13.20
2010,06,15,13,41,13.20
2010,06,15,13,42,13.30
2010,06,15,13,43,13.30
2010,06,15,13,44,13.30
2010,06,15,13,45,13.30
2010,06,15,13,46,13.30
2010,06,15,13,47,13.40
2010,06,15,13,48,13.40
2010,06,15,13,49,13.50
2010,06,15,13,50,13.60
2010,06,15,13,51,13.60
2010,06,15,13,52,13.70
2010,06,15,13,53,13.70
2010,06,15,13,54,13.70
2010,06,15,13,55,13.80
2010,06,15,13,56,13.80
2010,06,15,13,57,13.90
2010,06,15,13,58,13.90
2010,06,15,13,59,13.90
2010,06,15,14,00,13.80
2010,06,15,14,01,13.70
2010,06,15,14,02,13.60
2010,06,15,14,03,13.60
2010,06,15,14,04,13.60
2010,06,15,14,05,13.60
2010,06,15,14,06,13.60
2010,06,15,14,07,13.60
2010,06,15,14,08,13.60
2010,06,15,14,09,13.70
2010,06,15,14,10,13.70
2010,06,15,14,11,13.70
2010,06,15,14,12,13.70
2010,06,15,14,13,13.80
2010,06,15,14,14,13.80
2010,06,15,14,15,13.80
2010,06,15,14,16,13.80
2010,06,15,14,17,13.80
2010,06,15,14,18,13.80
2010,06,15,14,19,13.80
2010,06,15,14,20,13.70
2010,06,15,14,21,13.70
2010,06,15,14,22,13.70
2010,06,15,14,23,13.70
2010,06,15,14,24,13.80
2010,06,15,14,25,13.90
2010,06,15,14,26,14.00
2010,06,15,14,27,14.10
2010,06,15,14,28,14.20
2010,06,15,14,29,14.30
2010,06,15,14,30,14.30
2010,06,15,14,31,14.30
2010,06,15,14,32,14.30
2010,06,15,14,33,14.20
2010,06,15,14,34,14.20
2010,06,15,14,35,14.10
2010,06,15,14,36,14.10
2010,06,15,14,37,14.00
2010,06,15,14,38,13.90
2010,06,15,14,39,13.90
2010,06,15,14,40,13.90
2010,06,15,14,41,13.80
2010,06,15,14,42,13.70
2010,06,15,14,43,13.70
2010,06,15,14,44,13.80
2010,06,15,14,45,13.80
2010,06,15,14,46,13.80
2010,06,15,14,47,13.90
2010,06,15,14,48,14.00
2010,06,15,14,49,14.00
2010,06,15,14,50,14.10
2010,06,15,14,51,14.10
2010,06,15,14,52,14.10
2010,06,15,14,53,14.10
2010,06,15,14,54,14.10
2010,06,15,14,55,14.10
2010,06,15,14,56,14.10
2010,06,15,14,57,14.10
2010,06,15,14,58,14.20
2010,06,15,14,59,14.30
2010,06,15,15,00,14.30
2010,06,15,15,01,14.40
2010,06,15,15,02,14.50
2010,06,15,15,03,14.60
2010,06,15,15,04,14.60
2010,06,15,15,05,14.60
2010,06,15,15,06,14.60
2010,06,15,15,07,14.60
2010,06,15,15,08,14.60
2010,06,15,15,09,14.60
2010,06,15,15,10,14.70
2010,06,15,15,11,14.70
2010,06,15,15,12,14.70
2010,06,15,15,13,14.70
2010,06,15,15,14,14.70
2010,06,15,15,15,14.60
2010,06,15,15,16,14.60
2010,06,15,15,17,14.50
2010,06,15,15,18,14.40
2010,06,15,15,19,14.30
2010,06,15,15,20,14.30
2010,06,15,15,21,14.20
2010,06,15,15,22,14.10
2010,06,15,15,23,14.10
2010,06,15,15,24,14.10
2010,06,15,15,25,14.20
2010,06,15,15,26,14.20
2010,06,15,15,27,14.20
2010,06,15,15,28,14.20
2010,06,15,15,29,14.20
2010,06,15,15,30,14.30
2010,06,15,15,31,14.30
2010,06,15,15,32,14.30
2010,06,15,15,33,14.30
2010,06,15,15,34,14.30
2010,06,15,15,35,14.40
2010,06,15,15,36,14.50
2010,06,15,15,37,14.50
2010,06,15,15,38,14.60
2010,06,15,15,39,14.50
2010,06,15,15,40,14.40
2010,06,15,15,41,14.40
2010,06,15,15,42,14.30
2010,06,15,15,43,14.20
2010,06,15,15,44,14.20
2010,06,15,15,45,14.20
2010,06,15,15,46,14.20
2010,06,15,15,47,14.20
2010,06,15,15,48,14.20
2010,06,15,15,49,14.20
2010,06,15,15,50,14.20
2010,06,15,15,51,14.30
2010,06,15,15,52,14.40
2010,06,15,15,53,14.50
2010,06,15,15,54,14.50
2010,06,15,15,55,14.60
2010,06,15,15,56,14.60
2010,06,15,15,57,14.70
2010,06,15,15,58,14.80
2010,06,15,15,59,14.80
2010,06,15,16,00,14.80
2010,06,15,16,01,14.90
2010,06,15,16,02,14.90
2010,06,15,16,03,14.90
2010,06,15,16,04,14.90
2010,06,15,16,05,14.90
2010,06,15,16,06,14.90
2010,06,15,16,07,15.00
2010,06,15,16,08,15.00
2010,06,15,16,09,15.00
2010,06,15,16,10,15.00
2010,06,15,16,11,14.90
2010,06,15,16,12,14.80
2010,06,15,16,13,14.70
2010,06,15,16,14,14.70
2010,06,15,16,15,14.60
2010,06,15,16,16,14.60
2010,06,15,16,17,14.60
2010,06,15,16,18,14.60
2010,06,15,16,19,14.60
2010,06,15,16,20,14.50
2010,06,15,16,21,14.40
2010,06,15,16,22,14.40
2010,06,15,16,23,14.40
2010,06,15,16,24,14.40
2010,06,15,16,25,14.40
2010,06,15,16,26,14.40
2010,06,15,16,27,14.50
2010,06,15,16,28,14.60
2010,06,15,16,29,14.60
2010,06,15,16,30,14.70
2010,06,15,16,31,14.70
2010,06,15,16,32,14.80
2010,06,15,16,33,14.90
2010,06,15,16,34,15.00
2010,06,15,16,35,15.20
2010,06,15,16,36,15.20
2010,06,15,16,37,15.20
2010,06,15,16,38,15.30
2010,06,15,16,39,15.30
2010,06,15,16,40,15.30
2010,06,15,16,41,15.30
2010,06,15,16,42,15.40
2010,06,15,16,43,15.40
2010,06,15,16,44,15.40
2010,06,15,16,45,15.40
2010,06,15,16,46,15.40
2010,06,15,16,47,15.30
2010,06,15,16,48,15.30
2010,06,15,16,49,15.30
2010,06,15,16,50,15.40
2010,06,15,16,51,15.40
2010,06,15,16,52,15.50
2010,06,15,16,53,15.60
2010,06,15,16,54,15.60
2010,06,15,16,55,15.70
2010,06,15,16,56,15.70
2010,06,15,16,57,15.80
2010,06,15,16,58,15.80
2010,06,15,16,59,15.90
2010,06,15,17,00,15.90
2010,06,15,17,01,15.80
2010,06,15,17,02,15.70
2010,06,15,17,03,15.70
2010,06,15,17,04,15.60
2010,06,15,17,05,15.60
2010,06,15,17,06,15.60
2010,06,15,17,07,15.50
2010,06,15,17,08,15.50
2010,06,15,17,09,15.40
2010,06,15,17,10,15.30
2010,06,15,17,11,15.10
2010,06,15,17,12,14.90
2010,06,15,17,13,14.90
2010,06,15,17,14,14.80
2010,06,15,17,15,14.80
2010,06,15,17,16,14.70
2010,06,15,17,17,14.60
2010,06,15,17,18,14.50
2010,06,15,17,19,14.40
2010,06,15,17,20,14.30
2010,06,15,17,21,14.20
2010,06,15,17,22,14.10
2010,06,15,17,23,14.10
2010,06,15,17,24,14.10
2010,06,15,17,25,14.10
2010,06,15,17,26,14.00
2010,06,15,17,27,14.00
2010,06,15,17,28,14.00
2010,06,15,17,29,13.90
2010,06,15,17,30,13.90
2010,06,15,17,31,13.90
2010,06,15,17,32,13.90
2010,06,15,17,33,13.80
2010,06,15,17,34,13.80
2010,06,15,17,35,13.80
2010,06,15,17,36,13.80
2010,06,15,17,37,13.80
2010,06,15,17,38,13.90
2010,06,15,17,39,13.90
2010,06,15,17,40,13.90
2010,06,15,17,41,13.90